Powrót do katalogu

THORAD AGENA D DEB

AktywnyPO
NORAD 4935·DEBRIS·🇺🇸 United States

Wystrzelony Apr 8, 1970 z Vandenberg Space Force Base

Loading…

Następne Przeloty (najbliższe 24 godziny)

TLE

ŚwieżeSource: Space-Track

Epoka: Sep 14, 2026, 08:03 UTC

1 04935U 70025GB  26257.33542817  .00000494  00000-0  45322-3 0  9996
2 04935  99.8658  30.0843 0064291 134.7630 254.7868 13.87403542829402

Śledź THORAD AGENA D DEB w czasie rzeczywistym z AllMySat

Download on the App Store